#ZEITBEREICH: 13.05.2023 bis 13.05.2024
Datum;Zeit;REIS WG SM1H [m/s];REIS WR VM1H [�]
13.05.2023;01:00;0,5;
13.05.2023;02:00;0,9;257
13.05.2023;03:00;0,9;267
13.05.2023;04:00;0,9;17
13.05.2023;05:00;0,8;269
13.05.2023;06:00;0,8;
13.05.2023;07:00;1,1;337
13.05.2023;08:00;1,5;69
13.05.2023;09:00;2,3;42
13.05.2023;10:00;1,7;360
13.05.2023;11:00;2,5;343
13.05.2023;12:00;4,1;36
13.05.2023;13:00;4,9;42
13.05.2023;14:00;3,9;86
13.05.2023;15:00;3,5;159
13.05.2023;16:00;1,6;305
13.05.2023;17:00;4,9;92
13.05.2023;18:00;1,5;296
13.05.2023;19:00;1,8;297
13.05.2023;20:00;1,2;331
13.05.2023;21:00;1,6;343
13.05.2023;22:00;1,1;11
13.05.2023;23:00;0,4;
13.05.2023;24:00;0,2;
14.05.2023;01:00;0,4;
14.05.2023;02:00;0,8;
14.05.2023;03:00;0,6;
14.05.2023;04:00;0,7;20
14.05.2023;05:00;1,4;86
14.05.2023;06:00;1,2;93
14.05.2023;07:00;1,1;131
14.05.2023;08:00;0,9;120
14.05.2023;09:00;1,1;179
14.05.2023;10:00;1,4;233
14.05.2023;11:00;1,7;266
14.05.2023;12:00;2,3;354
14.05.2023;13:00;3,5;16
14.05.2023;14:00;3,7;37
14.05.2023;15:00;3,8;15
14.05.2023;16:00;3,3;18
14.05.2023;17:00;4,0;29
14.05.2023;18:00;2,9;21
14.05.2023;19:00;2,7;350
14.05.2023;20:00;3,9;23
14.05.2023;21:00;1,2;49
14.05.2023;22:00;0,7;344
14.05.2023;23:00;0,9;40
14.05.2023;24:00;0,9;357
15.05.2023;01:00;1,8;346
15.05.2023;02:00;1,2;334
15.05.2023;03:00;1,3;342
15.05.2023;04:00;2,9;284
15.05.2023;05:00;3,0;283
15.05.2023;06:00;2,6;275
15.05.2023;07:00;2,6;283
15.05.2023;08:00;3,1;295
15.05.2023;09:00;3,3;286
15.05.2023;10:00;2,3;305
15.05.2023;11:00;2,4;299
15.05.2023;12:00;3,4;293
15.05.2023;13:00;4,0;300
15.05.2023;14:00;4,8;289
15.05.2023;15:00;4,8;301
15.05.2023;16:00;6,0;294
15.05.2023;17:00;6,1;296
15.05.2023;18:00;5,3;297
15.05.2023;19:00;4,9;299
15.05.2023;20:00;5,1;306
15.05.2023;21:00;5,2;302
15.05.2023;22:00;4,5;303
15.05.2023;23:00;3,6;298
15.05.2023;24:00;4,4;288
16.05.2023;01:00;4,1;297
16.05.2023;02:00;4,0;328
16.05.2023;03:00;4,7;330
16.05.2023;04:00;4,0;340
16.05.2023;05:00;3,3;340
16.05.2023;06:00;3,7;344
16.05.2023;07:00;3,4;347
16.05.2023;08:00;4,6;351
16.05.2023;09:00;4,6;342
16.05.2023;10:00;4,7;335
16.05.2023;11:00;5,0;338
16.05.2023;12:00;4,3;328
16.05.2023;13:00;3,4;320
16.05.2023;14:00;5,0;335
16.05.2023;15:00;4,8;332
16.05.2023;16:00;4,9;332
16.05.2023;17:00;5,0;327
16.05.2023;18:00;4,1;335
16.05.2023;19:00;3,6;331
16.05.2023;20:00;3,2;330
16.05.2023;21:00;2,5;341
16.05.2023;22:00;1,6;347
16.05.2023;23:00;1,6;359
16.05.2023;24:00;2,1;335
17.05.2023;01:00;1,5;334
17.05.2023;02:00;1,2;322
17.05.2023;03:00;1,6;312
17.05.2023;04:00;1,8;300
17.05.2023;05:00;2,0;302
17.05.2023;06:00;1,8;292
17.05.2023;07:00;2,3;324
17.05.2023;08:00;3,0;358
17.05.2023;09:00;4,5;360
17.05.2023;10:00;3,8;16
17.05.2023;11:00;3,8;0
17.05.2023;12:00;3,8;328
17.05.2023;13:00;3,7;340
17.05.2023;14:00;3,6;351
17.05.2023;15:00;3,9;359
17.05.2023;16:00;3,8;360
17.05.2023;17:00;3,6;352
17.05.2023;18:00;3,8;29
17.05.2023;19:00;3,5;5
17.05.2023;20:00;3,0;27
17.05.2023;21:00;2,2;29
17.05.2023;22:00;2,1;29
17.05.2023;23:00;2,0;43
17.05.2023;24:00;1,9;46
18.05.2023;01:00;2,2;45
18.05.2023;02:00;2,0;41
18.05.2023;03:00;1,9;31
18.05.2023;04:00;1,8;43
18.05.2023;05:00;1,1;39
18.05.2023;06:00;2,5;56
18.05.2023;07:00;2,6;54
18.05.2023;08:00;2,9;44
18.05.2023;09:00;3,1;59
18.05.2023;10:00;3,6;51
18.05.2023;11:00;3,6;46
18.05.2023;12:00;3,3;22
18.05.2023;13:00;4,1;21
18.05.2023;14:00;3,9;22
18.05.2023;15:00;4,1;22
18.05.2023;16:00;4,6;18
18.05.2023;17:00;4,5;24
18.05.2023;18:00;4,4;25
18.05.2023;19:00;4,2;34
18.05.2023;20:00;3,6;20
18.05.2023;21:00;2,8;21
18.05.2023;22:00;2,6;34
18.05.2023;23:00;2,3;39
18.05.2023;24:00;2,2;40
19.05.2023;01:00;1,5;30
19.05.2023;02:00;1,4;12
19.05.2023;03:00;1,5;16
19.05.2023;04:00;1,5;9
19.05.2023;05:00;1,1;3
19.05.2023;06:00;1,4;12
19.05.2023;07:00;2,7;45
19.05.2023;08:00;2,9;55
19.05.2023;09:00;2,9;60
19.05.2023;10:00;4,2;44
19.05.2023;11:00;4,0;33
19.05.2023;12:00;3,6;34
19.05.2023;13:00;4,0;35
19.05.2023;14:00;4,2;22
19.05.2023;15:00;4,5;29
19.05.2023;16:00;4,4;33
19.05.2023;17:00;4,9;37
19.05.2023;18:00;4,8;34
19.05.2023;19:00;4,4;38
19.05.2023;20:00;3,9;34
19.05.2023;21:00;3,5;36
19.05.2023;22:00;3,3;41
19.05.2023;23:00;2,6;45
19.05.2023;24:00;2,2;45
20.05.2023;01:00;3,0;59
20.05.2023;02:00;2,8;43
20.05.2023;03:00;2,8;23
20.05.2023;04:00;2,5;15
20.05.2023;05:00;2,6;13
20.05.2023;06:00;2,6;31
20.05.2023;07:00;3,4;47
20.05.2023;08:00;4,9;53
20.05.2023;09:00;4,5;56
20.05.2023;10:00;5,0;50
20.05.2023;11:00;5,4;49
20.05.2023;12:00;5,0;48
20.05.2023;13:00;5,2;48
20.05.2023;14:00;5,4;51
20.05.2023;15:00;5,5;50
20.05.2023;16:00;5,2;50
20.05.2023;17:00;5,5;50
20.05.2023;18:00;4,8;52
20.05.2023;19:00;4,2;47
20.05.2023;20:00;3,0;49
20.05.2023;21:00;2,5;41
20.05.2023;22:00;2,9;40
20.05.2023;23:00;3,0;42
20.05.2023;24:00;2,9;42
21.05.2023;01:00;2,6;41
21.05.2023;02:00;2,3;25
21.05.2023;03:00;1,8;343
21.05.2023;04:00;1,6;342
21.05.2023;05:00;2,1;353
21.05.2023;06:00;2,2;3
21.05.2023;07:00;2,7;20
21.05.2023;08:00;2,6;25
21.05.2023;09:00;3,1;33
21.05.2023;10:00;3,3;39
21.05.2023;11:00;3,7;26
21.05.2023;12:00;3,3;10
21.05.2023;13:00;3,7;12
21.05.2023;14:00;4,2;31
21.05.2023;15:00;4,2;19
21.05.2023;16:00;4,0;10
21.05.2023;17:00;4,3;14
21.05.2023;18:00;3,5;19
21.05.2023;19:00;2,6;356
21.05.2023;20:00;3,0;290
21.05.2023;21:00;3,0;300
21.05.2023;22:00;2,6;343
21.05.2023;23:00;2,2;343
21.05.2023;24:00;;
22.05.2023;01:00;2,4;20
22.05.2023;02:00;1,7;5
22.05.2023;03:00;0,9;335
22.05.2023;04:00;1,0;
22.05.2023;05:00;1,8;279
22.05.2023;06:00;1,0;284
22.05.2023;07:00;1,7;257
22.05.2023;08:00;2,1;251
22.05.2023;09:00;2,5;252
22.05.2023;10:00;2,7;257
22.05.2023;11:00;3,1;283
22.05.2023;12:00;3,4;281
22.05.2023;13:00;3,1;268
22.05.2023;14:00;3,3;281
22.05.2023;15:00;3,3;290
22.05.2023;16:00;4,0;271
22.05.2023;17:00;4,9;271
22.05.2023;18:00;4,9;280
22.05.2023;19:00;4,6;304
22.05.2023;20:00;2,7;333
22.05.2023;21:00;2,0;299
22.05.2023;22:00;3,0;326
22.05.2023;23:00;2,9;323
22.05.2023;24:00;2,8;325
23.05.2023;01:00;3,7;313
23.05.2023;02:00;3,5;304
23.05.2023;03:00;4,0;311
23.05.2023;04:00;4,4;300
23.05.2023;05:00;4,4;304
23.05.2023;06:00;4,2;311
23.05.2023;07:00;4,3;305
23.05.2023;08:00;4,4;313
23.05.2023;09:00;4,5;320
23.05.2023;10:00;4,6;326
23.05.2023;11:00;4,8;334
23.05.2023;12:00;4,7;324
23.05.2023;13:00;4,4;335
23.05.2023;14:00;4,2;339
23.05.2023;15:00;4,0;337
23.05.2023;16:00;4,0;329
23.05.2023;17:00;4,5;336
23.05.2023;18:00;4,5;332
23.05.2023;19:00;4,3;341
23.05.2023;20:00;3,8;339
23.05.2023;21:00;3,3;337
23.05.2023;22:00;3,3;345
23.05.2023;23:00;3,3;350
23.05.2023;24:00;2,2;347
24.05.2023;01:00;1,9;350
24.05.2023;02:00;2,0;352
24.05.2023;03:00;0,9;334
24.05.2023;04:00;1,0;325
24.05.2023;05:00;1,4;329
24.05.2023;06:00;1,1;5
24.05.2023;07:00;1,1;14
24.05.2023;08:00;1,8;352
24.05.2023;09:00;3,1;339
24.05.2023;10:00;2,9;343
24.05.2023;11:00;3,0;6
24.05.2023;12:00;2,9;346
24.05.2023;13:00;2,6;352
24.05.2023;14:00;3,1;29
24.05.2023;15:00;3,3;18
24.05.2023;16:00;3,0;37
24.05.2023;17:00;3,1;26
24.05.2023;18:00;2,9;18
24.05.2023;19:00;2,4;32
24.05.2023;20:00;1,5;18
24.05.2023;21:00;1,2;43
24.05.2023;22:00;0,8;60
24.05.2023;23:00;1,1;62
24.05.2023;24:00;0,8;36
25.05.2023;01:00;1,5;350
25.05.2023;02:00;1,4;12
25.05.2023;03:00;1,3;29
25.05.2023;04:00;1,1;1
25.05.2023;05:00;1,4;6
25.05.2023;06:00;1,1;18
25.05.2023;07:00;1,2;29
25.05.2023;08:00;2,8;33
25.05.2023;09:00;3,0;36
25.05.2023;10:00;3,5;17
25.05.2023;11:00;3,9;11
25.05.2023;12:00;4,5;27
25.05.2023;13:00;5,1;39
25.05.2023;14:00;5,2;27
25.05.2023;15:00;4,7;31
25.05.2023;16:00;4,9;44
25.05.2023;17:00;4,5;30
25.05.2023;18:00;3,9;35
25.05.2023;19:00;3,6;37
25.05.2023;20:00;2,6;39
25.05.2023;21:00;1,8;55
25.05.2023;22:00;1,2;55
25.05.2023;23:00;1,6;15
25.05.2023;24:00;2,2;358
26.05.2023;01:00;2,4;25
26.05.2023;02:00;2,2;28
26.05.2023;03:00;2,4;6
26.05.2023;04:00;2,3;8
26.05.2023;05:00;2,8;14
26.05.2023;06:00;3,7;30
26.05.2023;07:00;4,8;36
26.05.2023;08:00;4,4;31
26.05.2023;09:00;3,8;31
26.05.2023;10:00;3,6;28
26.05.2023;11:00;4,4;36
26.05.2023;12:00;4,2;34
26.05.2023;13:00;4,6;32
26.05.2023;14:00;4,3;44
26.05.2023;15:00;4,8;24
26.05.2023;16:00;4,7;26
26.05.2023;17:00;4,8;37
26.05.2023;18:00;4,4;42
26.05.2023;19:00;4,3;41
26.05.2023;20:00;3,2;38
26.05.2023;21:00;2,9;25
26.05.2023;22:00;3,1;24
26.05.2023;23:00;2,5;26
26.05.2023;24:00;2,2;24
27.05.2023;01:00;2,4;28
27.05.2023;02:00;2,7;19
27.05.2023;03:00;2,4;19
27.05.2023;04:00;1,7;29
27.05.2023;05:00;2,2;40
27.05.2023;06:00;1,9;28
27.05.2023;07:00;2,1;25
27.05.2023;08:00;1,3;20
27.05.2023;09:00;0,9;
27.05.2023;10:00;1,5;19
27.05.2023;11:00;2,0;12
27.05.2023;12:00;2,8;335
27.05.2023;13:00;3,3;8
27.05.2023;14:00;4,5;19
27.05.2023;15:00;4,3;23
27.05.2023;16:00;3,9;23
27.05.2023;17:00;4,0;23
27.05.2023;18:00;4,6;19
27.05.2023;19:00;3,9;34
27.05.2023;20:00;3,1;36
27.05.2023;21:00;2,1;23
27.05.2023;22:00;1,9;35
27.05.2023;23:00;2,1;56
27.05.2023;24:00;1,4;348
28.05.2023;01:00;1,0;44
28.05.2023;02:00;0,5;
28.05.2023;03:00;1,6;69
28.05.2023;04:00;1,7;81
28.05.2023;05:00;1,3;73
28.05.2023;06:00;0,9;6
28.05.2023;07:00;0,4;
28.05.2023;08:00;0,1;
28.05.2023;09:00;1,6;10
28.05.2023;10:00;3,7;37
28.05.2023;11:00;4,2;31
28.05.2023;12:00;4,1;31
28.05.2023;13:00;4,1;34
28.05.2023;14:00;3,7;47
28.05.2023;15:00;4,3;19
28.05.2023;16:00;4,9;27
28.05.2023;17:00;4,1;25
28.05.2023;18:00;4,2;23
28.05.2023;19:00;2,9;24
28.05.2023;20:00;2,7;23
28.05.2023;21:00;2,6;20
28.05.2023;22:00;3,2;18
28.05.2023;23:00;4,0;24
28.05.2023;24:00;3,8;33
29.05.2023;01:00;3,7;16
29.05.2023;02:00;3,3;7
29.05.2023;03:00;4,4;13
29.05.2023;04:00;5,1;18
29.05.2023;05:00;3,7;27
29.05.2023;06:00;3,7;21
29.05.2023;07:00;4,1;27
29.05.2023;08:00;4,3;30
29.05.2023;09:00;4,1;20
29.05.2023;10:00;4,3;13
29.05.2023;11:00;4,9;5
29.05.2023;12:00;5,1;18
29.05.2023;13:00;5,1;21
29.05.2023;14:00;5,0;23
29.05.2023;15:00;5,1;23
29.05.2023;16:00;5,0;18
29.05.2023;17:00;4,9;19
29.05.2023;18:00;4,8;29
29.05.2023;19:00;4,1;25
29.05.2023;20:00;3,7;19
29.05.2023;21:00;2,7;21
29.05.2023;22:00;2,6;11
29.05.2023;23:00;2,7;12
29.05.2023;24:00;3,0;12
30.05.2023;01:00;2,3;23
30.05.2023;02:00;2,3;17
30.05.2023;03:00;2,7;18
30.05.2023;04:00;2,8;19
30.05.2023;05:00;2,9;20
30.05.2023;06:00;3,1;26
30.05.2023;07:00;3,8;29
30.05.2023;08:00;4,0;24
30.05.2023;09:00;3,8;23
30.05.2023;10:00;4,2;8
30.05.2023;11:00;4,2;22
30.05.2023;12:00;4,1;18
30.05.2023;13:00;4,1;13
30.05.2023;14:00;4,3;15
30.05.2023;15:00;4,6;22
30.05.2023;16:00;4,5;26
30.05.2023;17:00;4,2;36
30.05.2023;18:00;4,1;31
30.05.2023;19:00;4,3;35
30.05.2023;20:00;4,2;32
30.05.2023;21:00;4,5;39
30.05.2023;22:00;3,9;36
30.05.2023;23:00;3,4;40
30.05.2023;24:00;3,5;57
31.05.2023;01:00;2,9;50
31.05.2023;02:00;2,1;46
31.05.2023;03:00;3,1;57
31.05.2023;04:00;3,2;59
31.05.2023;05:00;3,1;59
31.05.2023;06:00;3,1;56
31.05.2023;07:00;2,0;48
31.05.2023;08:00;2,2;42
31.05.2023;09:00;2,2;47
31.05.2023;10:00;2,9;53
31.05.2023;11:00;3,9;43
31.05.2023;12:00;4,7;47
31.05.2023;13:00;4,7;40
31.05.2023;14:00;4,9;43
31.05.2023;15:00;4,7;36
31.05.2023;16:00;5,2;39
31.05.2023;17:00;5,2;42
31.05.2023;18:00;5,0;35
31.05.2023;19:00;4,9;33
31.05.2023;20:00;3,4;32
31.05.2023;21:00;2,5;32
31.05.2023;22:00;2,1;29
31.05.2023;23:00;1,6;11
31.05.2023;24:00;2,8;4
01.06.2023;01:00;2,7;0
01.06.2023;02:00;2,8;5
01.06.2023;03:00;;
01.06.2023;04:00;2,0;348
01.06.2023;05:00;3,3;5
01.06.2023;06:00;3,9;11
01.06.2023;07:00;3,2;355
01.06.2023;08:00;3,7;352
01.06.2023;09:00;3,5;348
01.06.2023;10:00;3,7;27
01.06.2023;11:00;2,8;5
01.06.2023;12:00;3,4;349
01.06.2023;13:00;3,7;7
01.06.2023;14:00;4,2;2
01.06.2023;15:00;4,0;11
01.06.2023;16:00;4,3;9
01.06.2023;17:00;4,5;6
01.06.2023;18:00;4,3;16
01.06.2023;19:00;3,4;19
01.06.2023;20:00;4,7;358
01.06.2023;21:00;;
01.06.2023;22:00;2,8;353
01.06.2023;23:00;3,5;349
01.06.2023;24:00;3,3;0
02.06.2023;01:00;2,4;23
02.06.2023;02:00;3,3;8
02.06.2023;03:00;3,0;353
02.06.2023;04:00;3,3;350
02.06.2023;05:00;3,3;2
02.06.2023;06:00;2,5;24
02.06.2023;07:00;2,8;20
02.06.2023;08:00;2,9;27
02.06.2023;09:00;2,8;352
02.06.2023;10:00;3,3;4
02.06.2023;11:00;3,6;18
02.06.2023;12:00;3,5;21
02.06.2023;13:00;4,0;39
02.06.2023;14:00;4,3;42
02.06.2023;15:00;4,7;31
02.06.2023;16:00;5,1;40
02.06.2023;17:00;5,0;39
02.06.2023;18:00;5,0;33
02.06.2023;19:00;4,6;35
02.06.2023;20:00;3,3;40
02.06.2023;21:00;1,9;27
02.06.2023;22:00;1,9;34
02.06.2023;23:00;2,4;36
02.06.2023;24:00;2,3;44
03.06.2023;01:00;2,8;62
03.06.2023;02:00;2,9;57
03.06.2023;03:00;2,3;50
03.06.2023;04:00;2,8;66
03.06.2023;05:00;3,5;59
03.06.2023;06:00;3,4;53
03.06.2023;07:00;3,1;55
03.06.2023;08:00;3,5;55
03.06.2023;09:00;4,2;43
03.06.2023;10:00;4,7;47
03.06.2023;11:00;4,7;46
03.06.2023;12:00;5,0;41
03.06.2023;13:00;5,0;29
03.06.2023;14:00;4,9;38
03.06.2023;15:00;5,0;36
03.06.2023;16:00;5,4;31
03.06.2023;17:00;4,8;39
03.06.2023;18:00;4,9;39
03.06.2023;19:00;4,5;40
03.06.2023;20:00;3,8;39
03.06.2023;21:00;2,9;33
03.06.2023;22:00;3,3;37
03.06.2023;23:00;2,5;43
03.06.2023;24:00;2,4;45
04.06.2023;01:00;2,6;45
04.06.2023;02:00;2,0;35
04.06.2023;03:00;1,8;29
04.06.2023;04:00;1,5;40
04.06.2023;05:00;0,7;293
04.06.2023;06:00;1,2;356
04.06.2023;07:00;1,7;46
04.06.2023;08:00;2,6;52
04.06.2023;09:00;2,7;44
04.06.2023;10:00;3,6;47
04.06.2023;11:00;4,2;38
04.06.2023;12:00;3,7;48
04.06.2023;13:00;3,8;20
04.06.2023;14:00;3,8;20
04.06.2023;15:00;4,0;7
04.06.2023;16:00;3,9;23
04.06.2023;17:00;4,8;25
04.06.2023;18:00;4,6;19
04.06.2023;19:00;4,0;28
04.06.2023;20:00;3,1;31
04.06.2023;21:00;2,5;25
04.06.2023;22:00;2,2;23
04.06.2023;23:00;2,0;17
04.06.2023;24:00;2,2;11
05.06.2023;01:00;3,0;35
05.06.2023;02:00;3,5;45
05.06.2023;03:00;3,5;39
05.06.2023;04:00;3,0;28
05.06.2023;05:00;2,2;20
05.06.2023;06:00;2,3;23
05.06.2023;07:00;2,5;33
05.06.2023;08:00;2,3;30
05.06.2023;09:00;2,2;23
05.06.2023;10:00;2,8;4
05.06.2023;11:00;4,0;17
05.06.2023;12:00;4,3;22
05.06.2023;13:00;4,6;14
05.06.2023;14:00;4,5;20
05.06.2023;15:00;4,2;22
05.06.2023;16:00;4,2;18
05.06.2023;17:00;4,0;18
05.06.2023;18:00;3,8;21
05.06.2023;19:00;4,1;21
05.06.2023;20:00;3,0;21
05.06.2023;21:00;2,6;19
05.06.2023;22:00;2,6;7
05.06.2023;23:00;2,4;351
05.06.2023;24:00;2,9;6
06.06.2023;01:00;;
06.06.2023;02:00;2,5;7
06.06.2023;03:00;2,5;5
06.06.2023;04:00;1,6;
06.06.2023;05:00;1,8;335
06.06.2023;06:00;1,6;340
06.06.2023;07:00;1,8;342
06.06.2023;08:00;2,1;346
06.06.2023;09:00;2,7;350
06.06.2023;10:00;2,7;343
06.06.2023;11:00;2,9;340
06.06.2023;12:00;3,6;343
06.06.2023;13:00;3,9;19
06.06.2023;14:00;4,0;25
06.06.2023;15:00;4,2;25
06.06.2023;16:00;3,9;33
06.06.2023;17:00;4,6;53
06.06.2023;18:00;4,1;50
06.06.2023;19:00;2,7;29
06.06.2023;20:00;2,6;31
06.06.2023;21:00;2,3;47
06.06.2023;22:00;1,4;47
06.06.2023;23:00;1,3;40
06.06.2023;24:00;1,7;34
07.06.2023;01:00;1,8;359
07.06.2023;02:00;2,4;29
07.06.2023;03:00;1,5;35
07.06.2023;04:00;1,4;329
07.06.2023;05:00;1,8;346
07.06.2023;06:00;1,9;346
07.06.2023;07:00;2,0;338
07.06.2023;08:00;2,4;346
07.06.2023;09:00;2,3;347
07.06.2023;10:00;2,6;346
07.06.2023;11:00;2,7;344
07.06.2023;12:00;2,6;355
07.06.2023;13:00;3,6;354
07.06.2023;14:00;4,5;12
07.06.2023;15:00;4,2;29
07.06.2023;16:00;3,9;35
07.06.2023;17:00;3,2;21
07.06.2023;18:00;3,3;30
07.06.2023;19:00;3,6;34
07.06.2023;20:00;2,7;25
07.06.2023;21:00;2,0;30
07.06.2023;22:00;1,9;22
07.06.2023;23:00;1,8;21
07.06.2023;24:00;2,5;37
08.06.2023;01:00;2,6;39
08.06.2023;02:00;2,4;27
08.06.2023;03:00;2,5;29
08.06.2023;04:00;2,6;27
08.06.2023;05:00;1,9;17
08.06.2023;06:00;1,6;15
08.06.2023;07:00;1,9;26
08.06.2023;08:00;2,7;32
08.06.2023;09:00;3,1;21
08.06.2023;10:00;2,9;38
08.06.2023;11:00;2,8;21
08.06.2023;12:00;2,6;13
08.06.2023;13:00;3,7;20
08.06.2023;14:00;3,8;33
08.06.2023;15:00;4,2;45
08.06.2023;16:00;3,8;51
08.06.2023;17:00;3,8;53
08.06.2023;18:00;4,3;49
08.06.2023;19:00;4,0;47
08.06.2023;20:00;2,4;106
08.06.2023;21:00;1,8;74
08.06.2023;22:00;2,1;44
08.06.2023;23:00;1,7;80
08.06.2023;24:00;0,9;152
09.06.2023;01:00;1,1;116
09.06.2023;02:00;1,2;13
09.06.2023;03:00;0,9;
09.06.2023;04:00;1,6;83
09.06.2023;05:00;0,8;66
09.06.2023;06:00;0,7;88
09.06.2023;07:00;0,3;
09.06.2023;08:00;0,6;
09.06.2023;09:00;0,9;
09.06.2023;10:00;2,0;94
09.06.2023;11:00;2,9;124
09.06.2023;12:00;3,3;127
09.06.2023;13:00;3,0;112
09.06.2023;14:00;3,7;104
09.06.2023;15:00;3,9;113
09.06.2023;16:00;3,4;90
09.06.2023;17:00;3,8;60
09.06.2023;18:00;3,3;31
09.06.2023;19:00;3,7;77
09.06.2023;20:00;3,2;70
09.06.2023;21:00;2,5;50
09.06.2023;22:00;3,0;59
09.06.2023;23:00;2,8;61
09.06.2023;24:00;3,0;59
10.06.2023;01:00;2,4;64
10.06.2023;02:00;2,0;65
10.06.2023;03:00;0,8;
10.06.2023;04:00;0,9;
10.06.2023;05:00;1,0;12
10.06.2023;06:00;1,5;2
10.06.2023;07:00;1,4;16
10.06.2023;08:00;1,2;4
10.06.2023;09:00;1,1;342
10.06.2023;10:00;1,3;346
10.06.2023;11:00;2,4;9
10.06.2023;12:00;2,0;9
10.06.2023;13:00;3,2;38
10.06.2023;14:00;3,3;74
10.06.2023;15:00;1,9;37
10.06.2023;16:00;3,3;49
10.06.2023;17:00;4,3;47
10.06.2023;18:00;3,1;69
10.06.2023;19:00;3,3;50
10.06.2023;20:00;3,9;48
10.06.2023;21:00;3,7;53
10.06.2023;22:00;2,8;60
10.06.2023;23:00;2,5;65
10.06.2023;24:00;2,5;70
11.06.2023;01:00;2,3;78
11.06.2023;02:00;2,2;93
11.06.2023;03:00;2,5;96
11.06.2023;04:00;2,1;123
11.06.2023;05:00;1,7;117
11.06.2023;06:00;2,1;124
11.06.2023;07:00;2,8;128
11.06.2023;08:00;3,4;128
11.06.2023;09:00;4,0;145
11.06.2023;10:00;3,9;127
11.06.2023;11:00;3,9;131
11.06.2023;12:00;4,2;135
11.06.2023;13:00;4,2;123
11.06.2023;14:00;4,4;134
11.06.2023;15:00;4,0;141
11.06.2023;16:00;3,4;125
11.06.2023;17:00;3,4;132
11.06.2023;18:00;3,3;105
11.06.2023;19:00;3,2;100
11.06.2023;20:00;2,4;91
11.06.2023;21:00;1,9;96
11.06.2023;22:00;2,0;70
11.06.2023;23:00;2,2;70
11.06.2023;24:00;2,6;65
12.06.2023;01:00;2,7;64
12.06.2023;02:00;2,5;65
12.06.2023;03:00;0,8;
12.06.2023;04:00;1,0;
12.06.2023;05:00;1,6;60
12.06.2023;06:00;1,4;69
12.06.2023;07:00;1,5;67
12.06.2023;08:00;2,0;102
12.06.2023;09:00;3,1;128
12.06.2023;10:00;3,4;125
12.06.2023;11:00;2,8;126
12.06.2023;12:00;4,0;129
12.06.2023;13:00;3,3;143
12.06.2023;14:00;2,8;149
12.06.2023;15:00;2,4;77
12.06.2023;16:00;3,0;40
12.06.2023;17:00;3,0;62
12.06.2023;18:00;3,3;78
12.06.2023;19:00;3,7;60
12.06.2023;20:00;3,9;51
12.06.2023;21:00;3,7;54
12.06.2023;22:00;2,8;59
12.06.2023;23:00;2,4;68
12.06.2023;24:00;3,0;77
13.06.2023;01:00;3,1;77
13.06.2023;02:00;2,3;77
13.06.2023;03:00;1,1;72
13.06.2023;04:00;1,0;18
13.06.2023;05:00;1,0;36
13.06.2023;06:00;0,6;
13.06.2023;07:00;1,3;107
13.06.2023;08:00;2,5;117
13.06.2023;09:00;2,9;125
13.06.2023;10:00;3,3;110
13.06.2023;11:00;2,7;101
13.06.2023;12:00;3,7;85
13.06.2023;13:00;3,3;67
13.06.2023;14:00;3,1;48
13.06.2023;15:00;3,6;41
13.06.2023;16:00;4,5;38
13.06.2023;17:00;4,3;46
13.06.2023;18:00;4,3;36
13.06.2023;19:00;4,7;49
13.06.2023;20:00;4,2;49
13.06.2023;21:00;3,7;52
13.06.2023;22:00;3,8;57
13.06.2023;23:00;2,7;63
13.06.2023;24:00;1,6;79
14.06.2023;01:00;1,6;12
14.06.2023;02:00;1,7;23
14.06.2023;03:00;1,3;33
14.06.2023;04:00;1,0;41
14.06.2023;05:00;0,7;
14.06.2023;06:00;1,8;30
14.06.2023;07:00;2,0;49
14.06.2023;08:00;2,5;65
14.06.2023;09:00;4,3;71
14.06.2023;10:00;4,8;54
14.06.2023;11:00;5,2;36
14.06.2023;12:00;4,8;46
14.06.2023;13:00;4,5;43
14.06.2023;14:00;4,8;36
14.06.2023;15:00;4,7;38
14.06.2023;16:00;4,9;49
14.06.2023;17:00;4,2;59
14.06.2023;18:00;4,2;66
14.06.2023;19:00;3,9;53
14.06.2023;20:00;4,5;48
14.06.2023;21:00;3,6;51
14.06.2023;22:00;2,9;56
14.06.2023;23:00;2,2;54
14.06.2023;24:00;2,3;59
15.06.2023;01:00;2,4;66
15.06.2023;02:00;1,5;60
15.06.2023;03:00;1,6;71
15.06.2023;04:00;1,5;59
15.06.2023;05:00;1,3;60
15.06.2023;06:00;0,2;
15.06.2023;07:00;0,4;
15.06.2023;08:00;0,5;
15.06.2023;09:00;0,9;
15.06.2023;10:00;1,5;58
15.06.2023;11:00;2,1;20
15.06.2023;12:00;3,2;23
15.06.2023;13:00;3,0;34
15.06.2023;14:00;3,0;30
15.06.2023;15:00;2,9;8
15.06.2023;16:00;3,3;13
15.06.2023;17:00;2,8;16
15.06.2023;18:00;2,9;14
15.06.2023;19:00;2,3;21
15.06.2023;20:00;1,9;26
15.06.2023;21:00;1,4;41
15.06.2023;22:00;1,0;43
15.06.2023;23:00;1,1;23
15.06.2023;24:00;2,5;55
16.06.2023;01:00;1,8;60
16.06.2023;02:00;1,5;34
16.06.2023;03:00;1,3;12
16.06.2023;04:00;1,4;27
16.06.2023;05:00;0,2;
16.06.2023;06:00;1,1;59
16.06.2023;07:00;1,1;38
16.06.2023;08:00;1,4;18
16.06.2023;09:00;1,2;26
16.06.2023;10:00;1,8;12
16.06.2023;11:00;2,5;33
16.06.2023;12:00;2,5;27
16.06.2023;13:00;2,4;24
16.06.2023;14:00;3,1;3
16.06.2023;15:00;3,1;324
16.06.2023;16:00;2,9;341
16.06.2023;17:00;2,9;334
16.06.2023;18:00;3,0;355
16.06.2023;19:00;2,9;356
16.06.2023;20:00;2,6;354
16.06.2023;21:00;2,4;7
16.06.2023;22:00;2,3;9
16.06.2023;23:00;2,0;353
16.06.2023;24:00;1,2;355
17.06.2023;01:00;1,1;24
17.06.2023;02:00;1,4;360
17.06.2023;03:00;0,7;351
17.06.2023;04:00;1,0;56
17.06.2023;05:00;1,0;84
17.06.2023;06:00;0,6;
17.06.2023;07:00;0,1;
17.06.2023;08:00;1,1;358
17.06.2023;09:00;0,9;349
17.06.2023;10:00;1,3;253
17.06.2023;11:00;2,0;264
17.06.2023;12:00;2,8;300
17.06.2023;13:00;2,8;303
17.06.2023;14:00;2,2;286
17.06.2023;15:00;2,7;288
17.06.2023;16:00;2,3;297
17.06.2023;17:00;2,6;295
17.06.2023;18:00;2,4;302
17.06.2023;19:00;2,5;289
17.06.2023;20:00;1,3;316
17.06.2023;21:00;1,0;356
17.06.2023;22:00;0,7;54
17.06.2023;23:00;0,7;85
17.06.2023;24:00;0,8;88
18.06.2023;01:00;1,0;99
18.06.2023;02:00;1,2;120
18.06.2023;03:00;1,2;75
18.06.2023;04:00;1,0;
18.06.2023;05:00;1,4;100
18.06.2023;06:00;1,5;119
18.06.2023;07:00;1,6;112
18.06.2023;08:00;1,7;127
18.06.2023;09:00;2,2;128
18.06.2023;10:00;2,1;161
18.06.2023;11:00;2,4;197
18.06.2023;12:00;2,0;220
18.06.2023;13:00;1,6;204
18.06.2023;14:00;1,9;207
18.06.2023;15:00;1,0;72
18.06.2023;16:00;1,8;25
18.06.2023;17:00;2,1;23
18.06.2023;18:00;2,0;45
18.06.2023;19:00;2,9;54
18.06.2023;20:00;3,1;64
18.06.2023;21:00;2,9;73
18.06.2023;22:00;2,2;108
18.06.2023;23:00;3,6;185
18.06.2023;24:00;2,7;171
19.06.2023;01:00;2,0;128
19.06.2023;02:00;1,6;142
19.06.2023;03:00;1,2;147
19.06.2023;04:00;2,6;203
19.06.2023;05:00;4,2;247
19.06.2023;06:00;3,1;248
19.06.2023;07:00;3,1;217
19.06.2023;08:00;4,0;240
19.06.2023;09:00;5,2;246
19.06.2023;10:00;4,3;248
19.06.2023;11:00;4,2;247
19.06.2023;12:00;4,5;251
19.06.2023;13:00;4,2;253
19.06.2023;14:00;3,1;258
19.06.2023;15:00;2,9;253
19.06.2023;16:00;3,0;273
19.06.2023;17:00;2,7;256
19.06.2023;18:00;2,4;272
19.06.2023;19:00;2,3;281
19.06.2023;20:00;1,6;15
19.06.2023;21:00;1,4;21
19.06.2023;22:00;1,4;32
19.06.2023;23:00;1,6;50
19.06.2023;24:00;1,3;31
20.06.2023;01:00;1,6;67
20.06.2023;02:00;0,9;107
20.06.2023;03:00;2,0;120
20.06.2023;04:00;1,9;158
20.06.2023;05:00;1,4;144
20.06.2023;06:00;1,2;150
20.06.2023;07:00;1,9;130
20.06.2023;08:00;3,0;141
20.06.2023;09:00;3,1;138
20.06.2023;10:00;3,3;164
20.06.2023;11:00;3,5;171
20.06.2023;12:00;3,3;164
20.06.2023;13:00;2,9;184
20.06.2023;14:00;3,5;170
20.06.2023;15:00;3,3;156
20.06.2023;16:00;3,5;155
20.06.2023;17:00;3,5;189
20.06.2023;18:00;4,2;193
20.06.2023;19:00;3,3;200
20.06.2023;20:00;3,3;228
20.06.2023;21:00;3,6;272
20.06.2023;22:00;3,2;303
20.06.2023;23:00;5,0;277
20.06.2023;24:00;1,1;222
21.06.2023;01:00;1,6;185
21.06.2023;02:00;1,3;174
21.06.2023;03:00;1,0;183
21.06.2023;04:00;0,8;134
21.06.2023;05:00;0,7;148
21.06.2023;06:00;0,9;111
21.06.2023;07:00;1,8;175
21.06.2023;08:00;2,2;193
21.06.2023;09:00;2,7;255
21.06.2023;10:00;3,0;258
21.06.2023;11:00;4,1;265
21.06.2023;12:00;4,4;268
21.06.2023;13:00;4,2;278
21.06.2023;14:00;3,7;273
21.06.2023;15:00;3,9;281
21.06.2023;16:00;3,6;293
21.06.2023;17:00;3,4;289
21.06.2023;18:00;2,8;293
21.06.2023;19:00;3,1;305
21.06.2023;20:00;2,6;315
21.06.2023;21:00;2,0;12
21.06.2023;22:00;1,3;6
21.06.2023;23:00;1,7;356
21.06.2023;24:00;2,0;12
22.06.2023;01:00;1,6;15
22.06.2023;02:00;1,7;348
22.06.2023;03:00;1,9;17
22.06.2023;04:00;1,8;9
22.06.2023;05:00;1,9;9
22.06.2023;06:00;1,9;36
22.06.2023;07:00;2,4;41
22.06.2023;08:00;1,9;43
22.06.2023;09:00;1,9;51
22.06.2023;10:00;2,6;55
22.06.2023;11:00;3,2;47
22.06.2023;12:00;2,2;53
22.06.2023;13:00;2,3;7
22.06.2023;14:00;2,9;48
22.06.2023;15:00;2,9;23
22.06.2023;16:00;3,8;16
22.06.2023;17:00;5,0;41
22.06.2023;18:00;3,6;17
22.06.2023;19:00;5,9;13
22.06.2023;20:00;5,6;2
22.06.2023;21:00;7,5;316
22.06.2023;22:00;7,7;307
22.06.2023;23:00;6,8;310
22.06.2023;24:00;5,8;306
23.06.2023;01:00;5,8;296
23.06.2023;02:00;4,9;292
23.06.2023;03:00;4,3;302
23.06.2023;04:00;3,6;298